Location: Kamms Corner
(44.7255°N, 108.9326°W)
Time: 16:57:59
(UTC+00:00)

ISS - Visible Passes

Search period start: 25 January 2022 00:00
Search period end: 04 February 2022 00:00
Orbit: 413 x 422 km, 51.6° (Epoch: 25 January)

Date Brightness Start Highest point End Pass type
(mag) Time Alt. Az. Time Alt. Az. Time Alt. Az.
25 Jan -2.8 00:59:29 10° W 01:02:38 39° NNW 01:05:31 12° NE visible
25 Jan -1.2 02:37:12 10° NW 02:38:27 17° NW 02:38:27 17° NW visible
26 Jan -2.2 01:48:56 10° WNW 01:51:45 24° N 01:52:22 23° NNE visible
27 Jan -2.3 01:00:35 10° WNW 01:03:29 27° N 01:06:14 11° NE visible
27 Jan -1.3 02:38:00 10° NW 02:39:09 17° NW 02:39:09 17° NW visible
28 Jan -2.3 01:49:47 10° NW 01:52:37 24° N 01:53:00 24° NNE visible
29 Jan -2.2 01:01:28 10° WNW 01:04:14 24° N 01:06:50 11° NE visible
29 Jan -1.5 02:38:25 10° NW 02:39:45 21° NW 02:39:45 21° NW visible
30 Jan -2.8 01:50:13 10° NW 01:53:14 31° NNE 01:53:35 30° NNE visible
31 Jan -2.5 01:01:55 10° NW 01:04:49 26° N 01:07:27 12° ENE visible
31 Jan -1.9 02:38:35 10° WNW 02:40:22 29° NW 02:40:22 29° NW visible
01 Feb -3.5 01:50:18 10° NW 01:53:35 52° NNE 01:54:17 42° ENE visible
02 Feb -3.1 01:01:59 10° NW 01:05:08 38° NNE 01:08:15 10° E visible
02 Feb -2.3 02:38:44 10° WNW 02:41:11 36° WSW 02:41:11 36° WSW visible
03 Feb -3.6 01:50:15 10° WNW 01:53:35 72° SSW 01:55:16 26° SE visible
